"Period start","avg(HW err(1)/warn(2) (#))","avg(Visibility (m))","avg(Weather code (#))","avg(Precip intensity (mm/h))","min(HW err(1)/warn(2) (#))","max(HW err(1)/warn(2) (#))","std(HW err(1)/warn(2) (#))","med(HW err(1)/warn(2) (#))","min(Visibility (m))","max(Visibility (m))","std(Visibility (m))","med(Visibility (m))","min(Weather code (#))","max(Weather code (#))","std(Weather code (#))","med(Weather code (#))","min(Precip intensity (mm/h))","max(Precip intensity (mm/h))","std(Precip intensity (mm/h))","med(Precip intensity (mm/h))"
2014-10-22 00:00:00,2,1903,71,2.46,2,2,0,2,1178,2461,311,1957,71,71,0,71,1.30,5.30,1.09,2.15
2014-10-22 00:10:00,2,2062,71,3.27,2,2,0,2,1515,2562,335,2103,71,71,0,71,2.00,4.60,0.68,3.17
2014-10-22 00:20:00,2,1594,71,3.58,2,2,0,2,1178,2067,309,1513,71,71,0,71,1.95,5.20,1.01,3.72
2014-10-22 00:30:00,2,1313,71,5.25,2,2,0,2,1033,1607,165,1320,71,71,0,71,3.30,6.50,0.96,5.48
2014-10-22 00:40:00,2,2343,71,2.70,2,2,0,2,1939,3000,270,2327,71,71,0,71,1.70,3.20,0.50,2.80
2014-10-22 00:50:00,2,2453,71,1.90,2,2,0,2,1721,3707,614,2261,71,71,0,71,1.00,2.40,0.55,2.20
2014-10-22 01:00:00,2,6154,71,0.49,2,2,0,2,2693,8759,2125,6728,71,71,0,71,0.00,1.65,0.62,0.12
2014-10-22 01:10:00,2,7766,54,0.02,2,2,0,2,5492,11289,2171,6930,10,77,29,71,0.00,0.10,0.03,0.00
2014-10-22 01:20:00,2,4837,59,0.31,2,2,0,2,2238,6878,1441,4680,10,71,24,71,0.00,1.40,0.44,0.08
2014-10-22 01:30:00,2,3161,71,0.79,2,2,0,2,1427,5827,1376,3049,71,71,0,71,0.15,1.80,0.47,0.62
2014-10-22 01:40:00,2,2220,71,0.76,2,2,0,2,1600,2818,398,2222,71,71,0,71,0.40,1.10,0.25,0.83
2014-10-22 01:50:00,2,2967,71,0.76,2,2,0,2,2314,4696,841,2600,71,71,0,71,0.25,1.70,0.46,0.62
2014-10-22 02:00:00,2,2951,71,1.10,2,2,0,2,2071,4656,694,2850,71,71,0,71,0.40,2.40,0.56,1.02
2014-10-22 02:10:00,2,3642,71,1.08,2,2,0,2,1635,6010,1186,3382,71,71,0,71,0.25,2.60,0.62,0.95
2014-10-22 02:20:00,2,3417,71,1.30,2,2,0,2,2751,4155,419,3302,71,71,0,71,0.75,2.35,0.51,1.18
2014-10-22 02:30:00,2,2839,71,2.39,2,2,0,2,1461,5008,1026,2487,71,71,0,71,0.65,5.25,1.23,2.27
2014-10-22 02:40:00,2,1731,71,3.19,2,2,0,2,1242,2317,339,1836,71,71,0,71,1.30,5.55,1.55,2.40
2014-10-22 02:50:00,2,1968,71,2.47,2,2,0,2,1614,2629,309,1855,71,71,0,71,1.20,3.95,0.88,2.30
2014-10-22 03:00:00,2,2456,71,1.75,2,2,0,2,1761,3113,460,2519,71,71,0,71,0.75,2.90,0.64,1.62
2014-10-22 03:10:00,2,2781,71,1.35,2,2,0,2,2051,4131,569,2653,71,71,0,71,0.45,2.90,0.68,1.20
2014-10-22 03:20:00,2,3183,71,1.23,2,2,0,2,2714,3749,325,3214,71,71,0,71,0.80,1.55,0.23,1.25
2014-10-22 03:30:00,2,2724,71,1.72,2,2,0,2,2260,3378,335,2641,71,71,0,71,0.55,2.80,0.73,1.43
2014-10-22 03:40:00,2,3276,71,1.39,2,2,0,2,2004,4559,683,3332,71,71,0,71,0.30,3.00,0.76,1.23
2014-10-22 03:50:00,2,3302,71,0.88,2,2,0,2,2341,4287,575,3344,71,71,0,71,0.35,1.40,0.38,0.90
2014-10-22 04:00:00,2,3613,73,0.27,2,2,0,2,2885,4037,334,3748,71,77,3,71,0.10,0.60,0.14,0.25
2014-10-22 04:10:00,2,4742,74,0.17,2,2,0,2,4214,5421,407,4651,71,77,3,74,0.05,0.35,0.11,0.12
2014-10-22 04:20:00,2,4370,77,0.12,2,2,0,2,3735,5158,518,4340,77,77,0,77,0.05,0.30,0.08,0.10
2014-10-22 04:30:00,2,4094,77,0.14,2,2,0,2,2731,5480,904,4192,77,77,0,77,0.05,0.50,0.13,0.10
2014-10-22 04:40:00,2,1656,73,1.01,2,2,0,2,1357,2011,219,1654,71,77,3,71,0.50,1.65,0.35,0.97
2014-10-22 04:50:00,2,1351,71,1.06,2,2,0,2,1223,1630,112,1317,71,71,0,71,0.85,1.45,0.17,1.00
2014-10-22 05:00:00,2,1636,73,0.44,2,2,0,2,1380,2136,232,1633,71,77,3,71,0.25,0.65,0.13,0.47
2014-10-22 05:10:00,2,2020,72,0.67,2,2,0,2,1753,2365,183,1974,71,77,2,71,0.15,1.30,0.36,0.60
2014-10-22 05:20:00,2,1764,71,0.78,2,2,0,2,1119,2382,429,1734,71,71,0,71,0.20,1.25,0.36,0.83
2014-10-22 05:30:00,2,2055,71,0.38,2,2,0,2,1749,2680,283,1996,71,71,0,71,0.15,0.95,0.22,0.35
2014-10-22 05:40:00,2,4241,73,0.07,2,2,0,2,2772,5796,883,4303,71,77,3,71,0.00,0.15,0.04,0.05
2014-10-22 05:50:00,2,2630,76,0.47,2,2,0,2,1554,3762,682,2833,71,77,2,77,0.10,1.30,0.38,0.33
2014-10-22 06:00:00,2,2984,71,0.77,2,2,0,2,1290,4045,944,3480,71,71,0,71,0.35,1.55,0.44,0.57
2014-10-22 06:10:00,2,2293,71,0.78,2,2,0,2,1340,3401,731,2074,71,71,0,71,0.45,1.45,0.31,0.70
2014-10-22 06:20:00,2,1507,71,1.17,2,2,0,2,1271,1759,126,1522,71,71,0,71,0.80,1.60,0.26,1.20
2014-10-22 06:30:00,2,1729,71,0.77,2,2,0,2,1367,2168,279,1682,71,71,0,71,0.35,1.55,0.38,0.68
2014-10-22 06:40:00,2,2167,76,0.36,2,2,0,2,1624,3066,468,2019,71,77,2,77,0.10,0.70,0.20,0.38
2014-10-22 06:50:00,2,3326,77,0.08,2,2,0,2,3091,3563,156,3368,77,77,0,77,0.05,0.15,0.04,0.05
2014-10-22 07:00:00,2,3975,77,0.09,2,2,0,2,3603,4432,304,3858,77,77,0,77,0.05,0.10,0.02,0.10
2014-10-22 07:10:00,2,3447,77,0.09,2,2,0,2,2492,4188,469,3565,77,77,0,77,0.05,0.15,0.03,0.10
2014-10-22 07:20:00,2,2001,77,0.38,2,2,0,2,1719,2305,192,2006,77,77,0,77,0.20,0.70,0.20,0.28
2014-10-22 07:30:00,2,2205,77,0.39,2,2,0,2,1975,2722,222,2156,77,77,0,77,0.10,0.45,0.11,0.45
2014-10-22 07:40:00,2,2505,76,0.21,2,2,0,2,2197,2650,144,2554,71,77,2,77,0.05,0.35,0.12,0.17
2014-10-22 07:50:00,2,2888,75,0.36,2,2,0,2,2150,3507,396,2892,71,77,3,77,0.20,0.65,0.13,0.33
2014-10-22 08:00:00,2,2348,73,0.48,2,2,0,2,1946,2796,266,2405,71,77,3,71,0.25,0.70,0.17,0.48
2014-10-22 08:10:00,2,2626,75,0.34,2,2,0,2,2185,2963,239,2639,71,77,3,77,0.20,0.50,0.12,0.28
2014-10-22 08:20:00,2,2339,72,0.47,2,2,0,2,1852,2744,268,2376,71,77,2,71,0.20,0.75,0.16,0.47
2014-10-22 08:30:00,2,2576,71,0.58,2,2,0,2,2314,2973,222,2500,71,71,0,71,0.45,0.90,0.14,0.55
2014-10-22 08:40:00,2,2707,73,0.61,2,2,0,2,2283,3258,270,2684,71,77,3,71,0.40,0.75,0.09,0.62
2014-10-22 08:50:00,2,2775,72,0.42,2,2,0,2,2397,3329,244,2715,71,77,2,71,0.15,0.65,0.15,0.45
2014-10-22 09:00:00,2,2678,76,0.38,2,2,0,2,2355,3258,317,2504,71,77,2,77,0.20,0.95,0.22,0.30
2014-10-22 09:10:00,2,2389,73,0.31,2,2,0,2,2116,2569,123,2436,71,77,3,71,0.20,0.45,0.09,0.30
2014-10-22 09:20:00,2,3129,77,0.35,2,2,0,2,2260,3637,406,3127,77,77,0,77,0.15,0.65,0.16,0.38
2014-10-22 09:30:00,2,3107,75,0.49,2,2,0,2,2754,3586,294,2946,71,77,3,77,0.35,0.60,0.07,0.50
2014-10-22 09:40:00,2,3493,72,0.48,2,2,0,2,2118,4523,801,3688,71,77,2,71,0.25,0.80,0.18,0.42
2014-10-22 09:50:00,2,2504,71,1.10,2,2,0,2,1950,3255,442,2394,71,71,0,71,0.50,1.75,0.42,1.18
2014-10-22 10:00:00,2,4157,71,0.82,2,2,0,2,3004,5344,589,4166,71,71,0,71,0.30,1.25,0.34,0.90
2014-10-22 10:10:00,2,4758,71,0.70,2,2,0,2,2067,6367,1372,4983,71,71,0,71,0.20,2.10,0.62,0.45
2014-10-22 10:20:00,2,2710,71,1.68,2,2,0,2,1995,3244,340,2716,71,71,0,71,1.35,2.15,0.27,1.62
2014-10-22 10:30:00,2,2488,71,1.01,2,2,0,2,2080,2822,251,2474,71,71,0,71,0.45,2.55,0.61,0.80
2014-10-22 10:40:00,2,3816,71,0.49,2,2,0,2,2221,5908,1365,3278,71,71,0,71,0.05,0.95,0.34,0.55
2014-10-22 10:50:00,2,3146,74,0.57,2,2,0,2,1789,4679,1010,2764,71,77,3,74,0.05,1.20,0.36,0.68
2014-10-22 11:00:00,2,2387,75,0.55,2,2,0,2,2049,2992,294,2334,71,77,3,77,0.30,1.00,0.20,0.53
2014-10-22 11:10:00,2,2748,75,0.45,2,2,0,2,2111,3877,601,2526,71,77,3,77,0.20,0.65,0.13,0.50
2014-10-22 11:20:00,2,3307,71,0.20,2,2,0,2,2652,4248,489,3168,71,71,0,71,0.05,0.40,0.12,0.12
2014-10-22 11:30:00,2,2083,72,0.45,2,2,0,2,1695,2533,289,2005,71,77,2,71,0.20,0.75,0.15,0.42
2014-10-22 11:40:00,2,1915,75,0.99,2,2,0,2,1584,2542,262,1883,71,77,3,77,0.65,1.60,0.30,0.88
2014-10-22 11:50:00,2,3182,71,0.38,2,2,0,2,2251,3938,516,3262,71,71,0,71,0.15,1.00,0.26,0.25
2014-10-22 12:00:00,2,3262,73,0.20,2,2,0,2,2408,5027,736,3126,71,77,3,71,0.05,0.45,0.11,0.17
2014-10-22 12:10:00,2,11326,76,0.01,2,2,0,2,7494,13832,1929,11552,71,77,2,77,0.00,0.10,0.03,0.00
2014-10-22 12:20:00,2,4704,72,0.52,2,2,0,2,3123,9877,2176,3800,71,77,2,71,0.10,0.75,0.20,0.57
2014-10-22 12:30:00,2,3678,71,0.63,2,2,0,2,2938,5262,737,3347,71,71,0,71,0.25,1.20,0.32,0.62
2014-10-22 12:40:00,2,7114,73,0.33,2,2,0,2,2201,10487,3209,8172,71,77,3,71,0.00,1.15,0.42,0.10
2014-10-22 12:50:00,2,13314,75,0.03,2,2,0,2,10747,15236,1135,13378,71,77,3,77,0.00,0.05,0.03,0.03
2014-10-22 13:00:00,2,14503,51,0.02,2,2,0,2,9899,16443,1807,14747,0,77,31,71,0.00,0.05,0.02,0.00
2014-10-22 13:10:00,2,8826,75,0.15,2,2,0,2,5952,12667,2475,8248,71,77,3,77,0.00,0.40,0.13,0.10
2014-10-22 13:20:00,2,10727,23,0.01,2,2,0,2,6098,16020,3238,10620,0,77,35,0,0.00,0.05,0.02,0.00
2014-10-22 13:30:00,2,7984,20,0.01,2,2,0,2,2528,10535,2742,9028,0,71,26,10,0.00,0.10,0.03,0.00
2014-10-22 13:40:00,2,6622,75,0.04,2,2,0,2,2511,9292,2140,7684,71,77,3,77,0.00,0.15,0.06,0.00
2014-10-22 13:50:00,2,5924,77,0.11,2,2,0,2,3815,9077,1584,5757,77,77,0,77,0.00,0.15,0.04,0.10
2014-10-22 14:00:00,2,9495,76,0.05,2,2,0,2,6565,11471,1783,10503,71,77,2,77,0.00,0.10,0.04,0.05
2014-10-22 14:10:00,2,14435,28,0.02,2,2,0,2,12389,15852,1133,14331,0,77,30,20,0.00,0.15,0.05,0.00
2014-10-22 14:20:00,2,10378,21,0.04,2,2,0,2,4148,15503,3063,9906,0,71,33,0,0.00,0.40,0.12,0.00
2014-10-22 14:30:00,2,9506,75,0.07,2,2,0,2,3167,13803,3268,10361,71,77,3,77,0.00,0.20,0.07,0.05
2014-10-22 14:40:00,2,15297,24,0.01,2,2,0,2,7815,19957,3785,16386,0,77,32,5,0.00,0.05,0.02,0.00
2014-10-22 14:50:00,2,14809,75,0.02,2,2,0,2,7958,21075,4627,15724,71,77,3,77,0.00,0.05,0.02,0.00
2014-10-22 15:00:00,2,17763,38,0.02,2,2,0,2,10573,25827,4710,16284,0,77,38,38,0.00,0.05,0.02,0.00
2014-10-22 15:10:00,2,23710,14,0.00,2,2,0,2,15753,29733,3565,24392,0,71,28,0,0.00,0.00,0.00,0.00
2014-10-22 15:20:00,2,5899,73,0.50,2,2,0,2,2200,14076,3691,4337,71,77,3,71,0.05,1.00,0.30,0.47
2014-10-22 15:30:00,2,4992,71,0.36,2,2,0,2,3149,6637,1327,5466,71,71,0,71,0.05,0.85,0.24,0.35
2014-10-22 15:40:00,2,4705,71,0.90,2,2,0,2,3700,5623,525,4720,71,71,0,71,0.45,1.65,0.33,0.92
2014-10-22 15:50:00,2,12948,28,0.01,2,2,0,2,6189,16778,3117,13138,0,71,35,0,0.00,0.15,0.05,0.00
2014-10-22 16:00:00,2,17852,8,0.01,2,2,0,2,12578,20709,2767,18942,0,40,16,0,0.00,0.05,0.02,0.00
2014-10-22 16:10:00,2,15854,72,0.01,2,2,0,2,11067,21435,3030,15960,40,77,11,77,0.00,0.05,0.02,0.00
2014-10-22 16:20:00,2,13701,75,0.11,2,2,0,2,7699,20260,4637,14932,71,77,3,77,0.00,0.40,0.14,0.05
2014-10-22 16:30:00,2,5619,71,0.40,2,2,0,2,3608,8355,1553,5733,71,71,0,71,0.10,0.90,0.28,0.35
2014-10-22 16:40:00,2,5350,71,0.99,2,2,0,2,3014,7235,1313,5632,71,71,0,71,0.40,2.15,0.51,0.97
2014-10-22 16:50:00,2,4788,71,1.08,2,2,0,2,3697,6013,698,4810,71,71,0,71,0.40,1.55,0.31,1.12
2014-10-22 17:00:00,2,3799,71,1.68,2,2,0,2,2928,5170,793,3396,71,71,0,71,0.90,2.40,0.49,1.73
2014-10-22 17:10:00,2,4328,71,1.49,2,2,0,2,2789,7174,1279,3932,71,71,0,71,0.30,3.60,1.02,1.55
2014-10-22 17:20:00,2,3365,71,1.69,2,2,0,2,2772,4113,493,3246,71,71,0,71,1.05,2.75,0.48,1.62
2014-10-22 17:30:00,2,3811,71,2.07,2,2,0,2,1839,5771,1107,3821,71,71,0,71,0.35,4.50,0.97,1.98
2014-10-22 17:40:00,2,6741,71,0.89,2,2,0,2,3683,9830,1874,6918,71,71,0,71,0.25,1.65,0.49,0.95
2014-10-22 17:50:00,2,6551,71,0.86,2,2,0,2,4627,9776,1566,6274,71,71,0,71,0.25,1.65,0.48,0.75
2014-10-22 18:00:00,2,9755,71,0.25,2,2,0,2,5271,12032,2056,10515,71,71,0,71,0.00,0.80,0.26,0.08
2014-10-22 18:10:00,2,6100,71,3.08,2,2,0,2,693,12299,4701,5398,71,71,0,71,0.00,8.65,3.51,0.90
2014-10-22 18:20:00,2,1336,71,5.99,2,2,0,2,489,2029,543,1220,71,71,0,71,1.75,10.65,3.02,6.03
2014-10-22 18:30:00,2,2871,71,2.31,2,2,0,2,559,6445,2086,2329,71,72,0,71,0.00,8.40,3.00,0.12
2014-10-22 18:40:00,2,10023,72,0.03,2,2,0,2,4307,14194,3073,10394,71,77,2,71,0.00,0.10,0.04,0.00
2014-10-22 18:50:00,2,1355,72,1.48,2,2,0,2,608,2599,523,1366,71,77,2,71,0.20,5.90,1.84,0.78
2014-10-22 19:00:00,2,5567,72,0.17,2,2,0,2,2574,8493,2308,5528,71,77,2,71,0.00,0.55,0.19,0.10
2014-10-22 19:10:00,2,2988,72,4.49,2,2,0,2,696,8964,2814,1734,71,77,2,71,0.00,12.10,3.80,4.50
2014-10-22 19:20:00,2,2793,71,0.31,2,2,0,2,1419,4746,922,2802,71,71,0,71,0.00,1.40,0.39,0.20
2014-10-22 19:30:00,2,3459,71,0.24,2,2,0,2,2142,5737,1290,2807,71,71,0,71,0.00,0.65,0.20,0.25
2014-10-22 19:40:00,2,4177,71,0.31,2,2,0,2,2651,5112,721,4226,71,71,0,71,0.00,1.00,0.28,0.23
2014-10-22 19:50:00,2,4900,72,0.03,2,2,0,2,2987,7614,1534,4292,71,77,2,71,0.00,0.10,0.03,0.03
2014-10-22 20:00:00,2,5594,73,0.03,2,2,0,2,3642,7694,1082,5380,71,77,3,71,0.00,0.15,0.04,0.03
2014-10-22 20:10:00,2,5440,73,0.17,2,2,0,2,3205,9032,1840,5424,71,77,3,71,0.05,0.55,0.16,0.10
2014-10-22 20:20:00,2,4854,72,0.13,2,2,0,2,3420,7167,1246,4688,71,77,2,71,0.00,0.50,0.14,0.08
2014-10-22 20:30:00,2,5308,56,0.03,2,2,0,2,2342,9273,1850,4954,10,77,30,74,0.00,0.15,0.05,0.00
2014-10-22 20:40:00,2,3956,22,0.03,2,2,0,2,2112,6245,1169,4010,10,71,24,10,0.00,0.30,0.09,0.00
2014-10-22 20:50:00,2,5053,71,0.33,2,2,0,2,3011,11769,2544,4183,71,71,0,71,0.00,1.40,0.40,0.25
2014-10-22 21:00:00,2,13046,10,0.00,2,2,0,2,10114,15496,1628,13328,10,10,0,10,0.00,0.00,0.00,0.00
2014-10-22 21:10:00,2,8370,4,0.00,2,2,0,2,3779,14115,3224,7745,0,10,5,0,0.00,0.00,0.00,0.00
2014-10-22 21:20:00,2,8177,10,0.00,2,2,0,2,5485,10147,1378,7950,10,10,0,10,0.00,0.00,0.00,0.00
2014-10-22 21:30:00,2,5558,62,0.52,2,2,0,2,1582,9371,2700,5198,40,71,14,71,0.00,2.15,0.78,0.08
2014-10-22 21:40:00,2,13786,40,0.01,2,2,0,2,10432,17421,2302,13440,0,77,32,40,0.00,0.05,0.02,0.00
2014-10-22 21:50:00,2,14023,0,0.00,2,2,0,2,8102,16935,2636,14810,0,0,0,0,0.00,0.00,0.00,0.00
2014-10-22 22:00:00,2,10007,32,2.32,2,2,0,2,365,18685,7225,11910,0,71,35,0,0.00,11.95,4.12,0.00
2014-10-22 22:10:00,2,3290,71,5.51,2,2,0,2,229,8143,2598,2337,71,71,0,71,0.00,27.55,8.38,0.70
2014-10-22 22:20:00,2,19952,28,0.04,2,2,0,2,7039,27980,6311,22172,0,71,35,0,0.00,0.35,0.11,0.00
2014-10-22 22:30:00,2,16044,16,0.01,2,2,0,2,4541,21845,5907,19312,0,41,20,0,0.00,0.05,0.02,0.00
2014-10-22 22:40:00,2,2851,59,2.71,2,2,0,2,593,5984,1747,2429,40,71,15,71,0.05,11.20,3.41,1.15
2014-10-22 22:50:00,2,7431,71,1.32,2,2,0,2,869,12866,4453,9451,71,71,0,71,0.00,8.20,2.40,0.12
2014-10-22 23:00:00,2,16715,21,0.01,2,2,0,2,4616,22385,6384,20199,0,71,33,0,0.00,0.05,0.02,0.00
2014-10-22 23:10:00,2,6893,72,0.15,2,2,0,2,3880,8665,1368,7326,71,77,2,71,0.00,0.70,0.22,0.05
2014-10-22 23:20:00,2,2037,71,4.65,2,2,0,2,455,4589,1427,1326,71,71,0,71,0.50,15.50,4.91,2.30
2014-10-22 23:30:00,2,2036,71,2.45,2,2,0,2,810,4035,963,1650,71,71,0,71,0.10,6.15,1.76,2.40
2014-10-22 23:40:00,2,4676,71,0.42,2,2,0,2,3203,6370,1154,4666,71,71,0,71,0.00,1.35,0.39,0.30
2014-10-22 23:50:00,2,1802,71,5.76,2,2,0,2,535,7425,1930,1132,71,71,0,71,0.00,14.50,3.75,5.38
